User: anonymous   Login
Location: Unspecified
(0.0000°N, 0.0000°E)
Time: 09:20:27
(UTC+00:00)
Language:

50 SAT - Orbit

View from above orbital plane
View from above orbital plane
View from above satellite
View from above satellite

Ground track
Ground track

The orbit data is extracted from the following two-line orbital elements,

1 39436U 13066W   17086.78592618 +.00032619 +00000-0 +10169-2 0  9999
2 39436 097.7050 189.0468 0011013 016.0411 344.1176 15.33121944184169
Epoch (UTC): 27 March 2017 18:51:44
Eccentricity: 0.0011013
inclination: 97.7050°
perigee height: 459 km
apogee height: 474 km
right ascension of ascending node: 189.0468°
argument of perigee: 16.0411°
revolutions per day: 15.33121944
mean anomaly at epoch: 344.1176°
orbit number at epoch: 18416

The dashed part of the orbit path shows where the satellite is in the earth's shadow,  

DLR